Regional Weather Roundup
Issued by NWS

Home | Current Version | Previous Version | Text Only | Print | Product List | Glossary On
Versions: 1 2 3 4 5 6 7 8 9 10 11 12 13 14 15 16 17 18 19 20 21 22 23 24 25 26 27
000
ASUS45 KTFX 201210
RWRMT
MONTANA REGIONAL WEATHER ROUNDUP
NATIONAL WEATHER SERVICE GREAT FALLS MT
500 AM MST MON NOV 20 2017

NOTE: "FAIR" INDICATES FEW OR NO CLOUDS BELOW 12000 FEET WITH NO
SIGNIFICANT WEATHER AND/OR OBSTRUCTIONS TO VISIBILITY.

MTZ001>007-043-201300-
WEST OF THE DIVIDE

CITY           SKY/WX    TMP DP  RH WIND       PRES   REMARKS
KALISPELL      CLOUDY    39  31  72 VRB3      29.66F
MISSOULA       LGT RAIN  39  33  79 N8        29.75F
BUTTE          CLOUDY    37  16  42 VRB3      29.74F
MULLAN PASS    SNOW      27  25  92 S7        29.67R VSB 1/4 WCI  19
ANACONDA         N/A     39  21  48 SW22G29   29.71F WCI  29
DEER LODGE       N/A     41  21  45 SE13G24   29.71S
EUREKA           N/A     41  30  65 MISG      29.64F
HAMILTON         N/A     43  30  61 SE15      29.76S
LIBBY            N/A     36  36 100 S8        29.64F WCI  29
PLAINS           N/A     42  32  68 SW6       29.73F
RONAN            N/A     42  32  68 SE8       29.76F
$$

MTZ008-052>055-201300-
SOUTHWEST MONTANA

CITY           SKY/WX    TMP DP  RH WIND       PRES   REMARKS
BOZEMAN        FAIR      35  19  52 SE9       29.72F WCI  28
DILLON         FAIR      39  14  36 SW15      29.77F WCI  31
W YELLOWSTONE  FAIR      28  14  54 SW10G18   29.92F WCI  19
ENNIS          CLOUDY    39  14  35 S20       29.84F WCI  30
TWIN BRIDGES     N/A     45  13  27 S2        29.78F
$$

MTZ009-010-012-014-046-048-049-054-201300-
EAST SLOPES AND CENTRAL MONTANA

CITY           SKY/WX    TMP DP  RH WIND       PRES   REMARKS
CUT BANK       FAIR      38  26  62 W40G52    29.43R WCI  24
GREAT FALLS    FAIR      43  14  31 W7        29.53R
MALMSTROM AFB  FAIR      48  11  22 W16G23    29.51R
HELENA         FAIR      42  18  37 SW8       29.65R
BOWMANS CRNR   FAIR      40  22  50 SW35G47   29.53R
CHOTEAU          N/A     41  27  56 W31G48    29.45S
RAYNESFORD     MOCLDY    51  13  22 SW33G48   29.50F
ULM            MOCLDY    48  15  26 SW32G39   29.53R
$$

MTZ011-013-016-021-045-047-050-051-201300-
NORTH CENTRAL MONTANA

CITY           SKY/WX    TMP DP  RH WIND       PRES   REMARKS
HAVRE          FAIR      38  21  50 W15       29.45R WCI  29
LEWISTOWN      FAIR      46  14  27 SW26G36   29.50F
N BAR RANCH    FAIR      50  12  22 W17G24    29.46F
CHINOOK          N/A     41  19  42 NW10      29.43R
DENTON         MOCLDY    49  13  23 SW14G24   29.46R
GEYSER         MOCLDY    49  13  23 W39G54    29.43R
GRASS RANGE    FAIR      50  12  21 W37G49    29.38F
WINIFRED       MOCLDY    50  12  21 W26G38    29.45F
$$

MTZ017>020-022>027-061-062-201300-
NORTHEAST MONTANA

CITY           SKY/WX    TMP DP  RH WIND       PRES   REMARKS
GLASGOW        CLOUDY    48  17  29 W13       29.40R
GLENDIVE       FAIR      42  19  39 SW14      29.46F
JORDAN           N/A     46  20  35 W15       29.44F
SIDNEY         FAIR      33  21  61 SW10      29.42F WCI  25
WOLF POINT     FAIR      27  19  72 SW6       29.40S WCI  20
MALTA          PTCLDY    39  18  41 CALM      29.42R
PLENTYWOOD       N/A     39  19  45 W6        29.36S
POPLAR           N/A     34  21  60 W5        29.40S
SCOBEY           N/A     42  16  35 SW6       29.39F
$$

MTZ028>42-056>058-201300-
SOUTHCENTRAL AND SOUTHEAST MONTANA

CITY           SKY/WX    TMP DP  RH WIND       PRES   REMARKS
BAKER          FAIR      40  19  43 SW13      29.50F
BILLINGS       FAIR      45  15  30 W16       29.58F
LIVINGSTON     FAIR      42  18  37 SW37G54   29.66F
MILES CITY     FAIR      40  21  46 CALM      29.50S
BIG TIMBER     CLEAR     43  18  36 W47G60    29.56F
FORSYTH          N/A     50  12  22 W9        29.51S
HARLOWTON      MOCLDY    46  16  31 W21       29.52F
LAUREL           N/A     43  14  31 SW3       29.60F
ROUNDUP          N/A     42  15  33 SW14      29.48F
$$

REGIONAL REPORTS...DAKOTAS

CITY           SKY/WX    TMP DP  RH WIND       PRES   REMARKS
WILLISTON      MOCLDY    33  23  66 SW9       29.39F WCI  25
MINOT          MOCLDY    42  22  44 SW16      29.36F
DICKINSON      FAIR      38  19  46 W12       29.45S WCI  30
BEACH          FAIR      43  16  33 SW17      29.50F
CROSBY         FAIR      32  21  64 SW15      29.35F WCI  22
TIOGA          FAIR      34  19  55 SW18      29.38F WCI  23
BISMARCK       FAIR      31  22  69 SE3       29.48F
GRAND FORKS    CLOUDY    30  25  81 S14       29.44F WCI  19
FARGO          FAIR      31  23  72 S13       29.51F WCI  21
BUFFALO SD       N/A     41  15  35 W10       29.48S
RAPID CITY     FAIR      35  15  44 CALM      29.58F
$$

REGIONAL REPORTS...WYOMING/IDAHO/WASHINGTON

CITY           SKY/WX    TMP DP  RH WIND       PRES   REMARKS
GILLETTE       FAIR      44  11  26 SW26G37   29.61F
SHERIDAN       FAIR      50  12  21 W13       29.61F
BUFFALO WY     FAIR      47  13  25 CALM      29.65F
CODY           FAIR      48   7  18 CALM      29.73R
YELLOWSTONE LA   N/A     16  14  92 W3        29.93F
IDAHO FALLS    FAIR      27  25  92 N6        29.99F WCI  20
SALMON         CLOUDY    34  22  61 CALM      29.86F
BOISE          CLOUDY    47  29  49 SE15      29.92F
SPOKANE        CLOUDY    39  38  96 S10       29.67S
$$

REGIONAL REPORTS...ALBERTA

CITY           SKY/WX    TMP DP  RH WIND       PRES   REMARKS
EDMONTON       CLOUDY    10   1  67 NW10      29.57R WCI  -3
CALGARY        LGT SNOW  25  21  86 N17       29.51R WCI  11
LETHBRIDGE     CLEAR     36  27  69 W15       29.45R WCI  26
MEDICINE HAT   CLOUDY    37  30  75 SW13G18   29.41F WCI  29
$$

REGIONAL REPORTS...SASKATCHEWAN

CITY           SKY/WX    TMP DP  RH WIND       PRES   REMARKS
SWIFT CURRENT  PTCLDY    37  27  65 W32G40    29.28R WCI  25
REGINA         CLOUDY    34  27  75 SW18      29.24F WCI  23
SASKATOON      CLOUDY    14  10  85 NW9       29.28R WCI   2
$$




USA.gov is the U.S. government's official web portal to all federal, state and local government web resources and services.